Regional Weather Roundup
Issued by NWS Northern Indiana

Home | Current Version | Previous Version | Text Only | Print | Product List | Glossary On
Versions: 1 2 3 4 5 6 7 8 9 10 11 12 13 14 15 16 17 18 19 20 21 22 23 24 25 26 27 28 29 30 31 32 33 34 35 36 37 38 39 40 41 42 43 44 45 46 47 48 49 50
000
ASUS43 KIWX 200310
RWRIWX

KIWX WEATHER ROUNDUP
NATIONAL WEATHER SERVICE NORTHERN INDIANA
1100 PM EDT TUE SEP 19 2017

NOTE: "FAIR" INDICATES FEW OR NO CLOUDS BELOW 12,000 FEET WITH NO
SIGNIFICANT WEATHER AND/OR OBSTRUCTIONS TO VISIBILITY.

* THESE STATIONS ARE NOT UNDER NWS QUALITY CONTROL. THEY ALSO MAY NOT
  REPORT WEATHER SUCH AS PRECIPITATION OR FOG.

INZ001>027-200400-
NORTHERN INDIANA

CITY           SKY/WX    TMP DP  RH WIND       PRES   REMARKS
GARY*          PTCLDY    63  61  94 CALM      29.94R
VALPARAISO     PTCLDY    64  63  96 CALM      29.94S FOG
MICHIGAN CITY*   N/A     61  61 100 CALM      29.94S FOG
LAPORTE*       CLEAR     62  61  97 CALM      29.95R
KNOX*            N/A     61  61 100 CALM      29.94R
SOUTH BEND     MOCLDY    63  63 100 CALM      29.95R
GOSHEN         MOCLDY    65  62  90 E3        29.94R FOG
MONTICELLO*    CLEAR     65  64  95 CALM      29.93R
LOGANSPORT*    CLEAR     63  61  94 E5        29.94S
WARSAW*        CLEAR     64  64 100 CALM      29.94R FOG
AUBURN*        CLOUDY    68  64  88 CALM      29.96R FOG
FORT WAYNE     FOG       66  64  93 E3        29.95S VSB 1/8
HUNTINGTON*    PTCLDY    64  63  96 CALM      29.95R FOG
PERU/GRISSOM   CLEAR     65  65 100 CALM      29.93S

$$
INZ028>050-200400-
CENTRAL INDIANA

CITY           SKY/WX    TMP DP  RH WIND       PRES   REMARKS
LAFAYETTE      CLEAR     65  65 100 CALM      29.92R
KOKOMO*        CLEAR     65  64  97 CALM      29.95R
MUNCIE*        MOCLDY    68  64  87 CALM      29.95S
INDIANAPOLIS   MOCLDY    72  67  84 S7        29.94R

$$
MIZ043>046-050>051-056>058-064>065-071>073-077>080-200400-
SOUTHWEST LOWER MICHIGAN

CITY           SKY/WX    TMP DP  RH WIND       PRES   REMARKS
BATTLE CREEK   LGT RAIN  67  66  97 E7        29.96R FOG
BENTON HARBOR  CLOUDY    69  64  84 CALM      29.94R
COLDWATER*     CLOUDY    67  67 100 CALM      29.96R
HILLSDALE*     CLOUDY    66  64  94 E5        29.96S FOG
HOLLAND        PTCLDY    65  60  84 E6        29.95S
GRAND RAPIDS   CLOUDY    67  63  87 E8        29.96R
KALAMAZOO      CLOUDY    68  64  87 E3        29.95S FOG
STURGIS*       CLOUDY    66  66  99 E3        29.94S FOG
THREE RIVERS*  CLOUDY    68  67  97 CALM      29.95R FOG

$$
OHZ001>008-015>018-024>025-200400-
NORTHWEST OHIO

CITY           SKY/WX    TMP DP  RH WIND       PRES   REMARKS
WAUSEON*       CLOUDY    68  68 100 E6        29.95S FOG
DEFIANCE       PTCLDY    68  67  96 SE5       29.94S FOG
FINDLAY        PTCLDY    69  65  86 CALM      29.96R FOG
TOLEDO METCALF CLOUDY    69  67  93 SE5       29.96S FOG
LIMA           CLOUDY    69  67  93 S5        29.97R

$$
AND FOR LAKE MICHIGAN COASTAL AND OPEN LAKE BUOY OBSERVATIONS

STATION/POSITION TEMP    WIND        PRES    VSBY  WAVE
                 AIR SEA DIR/SP/G                  HT/PER
                 (F)     (DEG/KT/KT) (MB)    (MI)  (FT/S)
CALUMET HARBOR    68      60/  4/  5 1012.9R
MICHIGAN CITY     66      70/  4/  4   N/A
BURNS HARBOR      68      90/  4/  5 1014.2R
SAINT JOSEPH      68        CALM     1014.9
SOUTH LAKE BUOY   68 69   40/  8/ 10 1013.6R         0
4 MI NW BRIDGMAN  67 69  170/  4/  6 1013.7          1
MICHIGAN CITY     67 69  110/  4/  4   N/A           1/ 3

$$
&&



USA.gov is the U.S. government's official web portal to all federal, state and local government web resources and services.